Tiempo cada hora Alife

Hoy, 27 Julio, Martes

Tiempo Temperatura Precipitaciones Viento Presión Humedad
00:00 +26°C° 0 mm 1 mps 742 mmHg 30%
01:00 +26°C° 0 mm 1 mps 742 mmHg 28%
02:00 +26°C° 0 mm 1 mps 742 mmHg 27%
03:00 +26°C° 0 mm 1 mps 742 mmHg 26%
04:00 +26°C° 0 mm 1 mps 742 mmHg 26%
05:00 +27°C° 0 mm 1 mps 743 mmHg 24%
06:00 +29°C° 0 mm 1 mps 743 mmHg 23%
07:00 +30°C° 0 mm 1 mps 743 mmHg 22%
08:00 +32°C° 0 mm 1 mps 743 mmHg 20%
09:00 +35°C° 0 mm 2 mps 743 mmHg 18%
10:00 +37°C° 0 mm 2 mps 743 mmHg 16%
11:00 +38°C° 0 mm 3 mps 743 mmHg 15%
12:00 +40°C° 0 mm 4 mps 743 mmHg 14%
13:00 +41°C° 0 mm 4 mps 743 mmHg 13%
14:00 +41°C° 0 mm 4 mps 743 mmHg 14%
15:00 +40°C° 0 mm 4 mps 743 mmHg 15%
16:00 +40°C° 0 mm 4 mps 743 mmHg 17%
17:00 +36°C° 0 mm 4 mps 743 mmHg 21%
18:00 +34°C° 0 mm 3 mps 742 mmHg 25%
19:00 +30°C° 0 mm 2 mps 742 mmHg 30%
20:00 +29°C° 0 mm 2 mps 743 mmHg 32%
21:00 +28°C° 0 mm 1 mps 743 mmHg 35%
22:00 +26°C° 0 mm 1 mps 743 mmHg 37%
23:00 +26°C° 0 mm 1 mps 743 mmHg 36%

Mañana, 28 Julio, Miércoles

Tiempo Temperatura Precipitaciones Viento Presión Humedad
00:00 +26°C° 0 mm 1 mps 743 mmHg 35%
01:00 +25°C° 0 mm 1 mps 743 mmHg 34%
02:00 +25°C° 0 mm 1 mps 742 mmHg 33%
03:00 +25°C° 0 mm 1 mps 742 mmHg 33%
04:00 +25°C° 0 mm 1 mps 742 mmHg 32%
05:00 +27°C° 0 mm 1 mps 742 mmHg 29%
06:00 +29°C° 0 mm 1 mps 742 mmHg 26%
07:00 +31°C° 0 mm 1 mps 742 mmHg 23%
08:00 +34°C° 0 mm 2 mps 742 mmHg 20%
09:00 +37°C° 0 mm 2 mps 742 mmHg 18%
10:00 +39°C° 0 mm 3 mps 742 mmHg 15%
11:00 +41°C° 0 mm 4 mps 742 mmHg 15%
12:00 +41°C° 0 mm 4 mps 742 mmHg 15%
13:00 +42°C° 0 mm 5 mps 742 mmHg 15%
14:00 +42°C° 0 mm 5 mps 741 mmHg 16%
15:00 +41°C° 0 mm 4 mps 741 mmHg 17%
16:00 +41°C° 0 mm 4 mps 741 mmHg 18%
17:00 +37°C° 0 mm 3 mps 741 mmHg 23%
18:00 +35°C° 0 mm 3 mps 741 mmHg 29%
19:00 +31°C° 0 mm 2 mps 741 mmHg 34%
20:00 +30°C° 0 mm 1 mps 741 mmHg 38%
21:00 +28°C° 0 mm 1 mps 741 mmHg 42%
22:00 +27°C° 0 mm 1 mps 742 mmHg 46%
23:00 +26°C° 0 mm 1 mps 742 mmHg 46%

Pasado mañana, 29 Julio, Jueves

Tiempo Temperatura Precipitaciones Viento Presión Humedad
00:00 +26°C° 0 mm 1 mps 741 mmHg 45%
01:00 +26°C° 0 mm 1 mps 741 mmHg 45%
02:00 +25°C° 0 mm 1 mps 741 mmHg 45%
03:00 +25°C° 0 mm 1 mps 741 mmHg 45%
04:00 +25°C° 0 mm 1 mps 741 mmHg 45%
05:00 +27°C° 0 mm 1 mps 741 mmHg 40%
06:00 +29°C° 0 mm 1 mps 741 mmHg 36%
07:00 +31°C° 0 mm 1 mps 741 mmHg 31%
08:00 +34°C° 0 mm 2 mps 741 mmHg 26%
09:00 +37°C° 0 mm 2 mps 741 mmHg 21%
10:00 +39°C° 0 mm 3 mps 741 mmHg 16%
11:00 +41°C° 0 mm 4 mps 741 mmHg 15%
12:00 +42°C° 0 mm 5 mps 741 mmHg 14%
13:00 +42°C° 0 mm 5 mps 741 mmHg 13%
14:00 +42°C° 0 mm 5 mps 741 mmHg 14%
15:00 +41°C° 0 mm 5 mps 741 mmHg 15%
16:00 +40°C° 0 mm 5 mps 740 mmHg 16%
17:00 +37°C° 0 mm 4 mps 740 mmHg 22%
18:00 +34°C° 0 mm 3 mps 740 mmHg 27%
19:00 +31°C° 0 mm 2 mps 740 mmHg 33%
20:00 +29°C° 0 mm 2 mps 740 mmHg 36%
21:00 +28°C° 0 mm 1 mps 740 mmHg 40%
22:00 +26°C° 0 mm 1 mps 740 mmHg 44%
23:00 +26°C° 0 mm 1 mps 740 mmHg 43%

30 Julio, Viernes

Tiempo Temperatura Precipitaciones Viento Presión Humedad
00:00 +26°C° 0 mm 1 mps 740 mmHg 42%
01:00 +26°C° 0 mm 1 mps 740 mmHg 42%
02:00 +25°C° 0 mm 1 mps 740 mmHg 42%
03:00 +25°C° 0 mm 1 mps 739 mmHg 42%
04:00 +25°C° 0 mm 1 mps 739 mmHg 42%
05:00 +27°C° 0 mm 1 mps 739 mmHg 37%
06:00 +29°C° 0 mm 1 mps 740 mmHg 33%
07:00 +31°C° 0 mm 1 mps 740 mmHg 29%
08:00 +34°C° 0 mm 2 mps 740 mmHg 25%
09:00 +36°C° 0 mm 2 mps 740 mmHg 22%
10:00 +39°C° 0 mm 3 mps 740 mmHg 18%
11:00 +40°C° 0 mm 4 mps 739 mmHg 18%
12:00 +41°C° 0 mm 4 mps 739 mmHg 18%
13:00 +41°C° 0 mm 5 mps 739 mmHg 18%
14:00 +41°C° 0 mm 5 mps 738 mmHg 19%
15:00 +40°C° 0 mm 4 mps 738 mmHg 20%
16:00 +38°C° 0 mm 4 mps 738 mmHg 21%
17:00 +36°C° 0 mm 4 mps 738 mmHg 26%
18:00 +34°C° 0 mm 3 mps 738 mmHg 31%
19:00 +31°C° 0 mm 2 mps 738 mmHg 35%
20:00 +29°C° 0 mm 2 mps 738 mmHg 41%
21:00 +27°C° 0 mm 1 mps 738 mmHg 47%
22:00 +26°C° 0 mm 1 mps 738 mmHg 53%
23:00 +25°C° 0 mm 1 mps 738 mmHg 54%

31 Julio, Sábado

Tiempo Temperatura Precipitaciones Viento Presión Humedad
00:00 +25°C° 0 mm 1 mps 738 mmHg 56%
01:00 +24°C° 0 mm 1 mps 738 mmHg 58%
02:00 +24°C° 0 mm 1 mps 738 mmHg 59%
03:00 +24°C° 0 mm 1 mps 738 mmHg 60%
04:00 +23°C° 0 mm 1 mps 737 mmHg 61%
05:00 +25°C° 0 mm 1 mps 737 mmHg 56%
06:00 +27°C° 0 mm 1 mps 738 mmHg 52%
07:00 +29°C° 0 mm 1 mps 738 mmHg 47%
08:00 +31°C° 0 mm 2 mps 738 mmHg 41%
09:00 +35°C° 0 mm 2 mps 738 mmHg 34%
10:00 +37°C° 0 mm 3 mps 737 mmHg 28%
11:00 +38°C° 0 mm 4 mps 737 mmHg 27%
12:00 +39°C° 0 mm 5 mps 737 mmHg 26%
13:00 +40°C° 0 mm 5 mps 737 mmHg 25%
14:00 +39°C° 0 mm 5 mps 737 mmHg 27%
15:00 +39°C° 0 mm 5 mps 737 mmHg 28%
16:00 +37°C° 0 mm 4 mps 737 mmHg 30%
17:00 +35°C° 0 mm 4 mps 737 mmHg 35%
18:00 +33°C° 0 mm 3 mps 737 mmHg 41%
19:00 +29°C° 0 mm 2 mps 737 mmHg 47%
20:00 +28°C° 0 mm 2 mps 738 mmHg 53%
21:00 +26°C° 0 mm 1 mps 738 mmHg 59%
22:00 +25°C° 0 mm 1 mps 738 mmHg 64%
23:00 +24°C° 0 mm 1 mps 738 mmHg 65%

1 Agosto, Domingo

Tiempo Temperatura Precipitaciones Viento Presión Humedad
00:00 +24°C° 0 mm 1 mps 738 mmHg 65%
01:00 +24°C° 0 mm 1 mps 738 mmHg 65%
02:00 +24°C° 0 mm 1 mps 738 mmHg 65%
03:00 +23°C° 0 mm 1 mps 737 mmHg 66%
04:00 +23°C° 0 mm 1 mps 737 mmHg 66%
05:00 +25°C° 0 mm 1 mps 737 mmHg 58%
06:00 +27°C° 0 mm 1 mps 737 mmHg 50%
07:00 +29°C° 0 mm 1 mps 737 mmHg 42%
08:00 +31°C° 0 mm 2 mps 737 mmHg 37%
09:00 +34°C° 0 mm 3 mps 737 mmHg 32%
10:00 +36°C° 0 mm 4 mps 737 mmHg 26%
11:00 +37°C° 0 mm 4 mps 737 mmHg 25%
12:00 +38°C° 0 mm 4 mps 737 mmHg 24%
13:00 +38°C° 0 mm 4 mps 737 mmHg 23%
14:00 +39°C° 0 mm 5 mps 737 mmHg 25%
15:00 +37°C° 0 mm 5 mps 737 mmHg 26%
16:00 +38°C° 0 mm 6 mps 736 mmHg 27%
17:00 +35°C° 0 mm 5 mps 736 mmHg 36%
18:00 +32°C° 0 mm 4 mps 736 mmHg 45%
19:00 +29°C° 0 mm 3 mps 736 mmHg 54%
20:00 +27°C° 0 mm 2 mps 736 mmHg 63%
21:00 +25°C° 0 mm 2 mps 737 mmHg 72%
22:00 +24°C° 0 mm 2 mps 737 mmHg 81%
23:00 +23°C° 0 mm 2 mps 737 mmHg 81%
Mostrar más

Necesitamos Su Consentimiento

Meteoprog y nuestros Proveedores de Servicios pueden almacenar y acceder a sus datos personales como cookies, identificadores de dispositivo u otras tecnologías similares de su dispositivo y procesar dichos datos para personalizar contenido y anuncios, además de ofrecer funciones de redes sociales y analizar el tráfico.

  • Almacenar y/o acceder a información en su dispositivo

    Se puede almacenar o acceder a cookies, identificadores de dispositivo u otra información de su dispositivo para los fines anteriormente indicados.

  • Anuncios y contenido personalizados, medición de anuncios y contenido, percepciones del público, y desarrollo de productos

    Los anuncios y el contenido pueden personalizarse en base a su perfil. Se pueden añadir más datos para personalizar mejor los anuncios y contenidos. Se puede medir el rendimiento de los anuncios y contenidos. Se puede obtener la percepción sobre el público que ha visto los anuncios y contenidos. Dichos datos pueden usarse para desarrollar o mejorar la experiencia del usuario, sistemas y software.

Al hacer clic en ‘Estoy De Acuerdo’ usted permitirá el uso de las cookies, identificadores de dispositivo, balizas web u otras tecnologías similares indicadas. Su configuración puede cambiarse desde el navegador de su dispositivo.

Para ciertos fines, los intereses legítimos pueden ser considerados por encima del consentimiento. Puede leer más sobre ello en nuestra Política de Privacidad y Cookies.